Location: Aranbee
(34.0885°N, 118.2342°W)
Time: 16:08:35
(UTC+00:00)

Vanguard 1 - Visible Passes

Search period start: 24 September 2022 00:00
Search period end: 04 October 2022 00:00
Orbit: 649 x 3832 km, 34.2° (Epoch: 22 September)

Date Brightness Start Highest point End Pass type
(mag) Time Alt. Az. Time Alt. Az. Time Alt. Az.
24 Sep 9.8 02:19:59 10° W 02:27:16 88° N 02:31:37 12° E visible
24 Sep 11.5 04:42:28 10° W 04:44:18 21° W 04:44:18 21° W visible
25 Sep 9.6 02:41:04 10° W 02:47:59 88° N 02:51:09 22° E visible
25 Sep 12.2 05:03:22 10° W 05:03:50 12° W 05:03:50 12° W visible
26 Sep 9.5 03:02:06 10° W 03:08:40 85° S 03:10:42 36° ESE visible
27 Sep 9.4 03:23:07 10° W 03:29:19 72° SSW 03:30:15 56° SE visible
28 Sep 9.7 03:44:05 10° W 03:49:49 55° SSW 03:49:49 55° SSW visible
29 Sep 10.7 04:05:07 10° W 04:09:24 35° SW 04:09:24 35° SW visible
30 Sep 10.1 02:02:32 10° W 02:11:10 84° S 02:16:17 10° ESE visible
30 Sep 11.5 04:26:19 10° W 04:29:01 21° WSW 04:29:01 21° WSW visible
01 Oct 10.1 02:23:42 10° W 02:31:50 72° SSW 02:35:56 16° ESE visible
01 Oct 12.2 04:47:54 10° WSW 04:48:38 12° WSW 04:48:38 12° WSW visible
02 Oct 10.3 02:44:50 10° W 02:52:25 57° SSW 02:55:35 22° SE visible
03 Oct 10.7 03:06:01 10° W 03:12:52 41° SSW 03:15:15 26° SSE visible
